[[{"header":{"parameterUnit":"m.s-1","parameterCategory":1,"la1":30.2991,"la2":30.254,"lo1":-89.0895,"lo2":-89.0444,"dy":0.0017,"dx":0.0017,"nx":28,"ny":28,"refTime":"2025-03-13T09:00:00:Z","depth":0,"parameterNumber":2,"parameterNumberName":"U-component_of_WINDS"},"data":[0,0,0,0,0,0,0,0,0,0,0,0,0,0,0,0,0,0,0,0,0,0,0,0,0,0,0,0,0,0,0,0,0,0,0,0,0,0,0,0,0,0,0,0,0,0,0,0,0,0,0,0,0,0,0,0,0,0,-2.5825,-2.5824,0,-2.5789,-2.5789,-2.5789,-2.5697,-2.5695,-2.5693,-2.5691,-2.5658,-2.5659,-2.566,0,0,0,0,0,0,0,0,0,0,0,0,0,-2.5817,-2.5817,-2.5825,-2.5824,-2.5824,-2.579,-2.5789,-2.5789,-2.5697,-2.5695,-2.5692,-2.569,-2.5658,-2.5659,-2.566,0,0,0,0,0,0,0,0,0,0,0,0,0,-2.5805,-2.5818,-2.5825,-2.5774,-2.5769,-2.579,-2.5789,-2.5788,-2.5698,-2.5695,-2.5692,-2.5689,-2.5657,-2.5659,-2.566,-2.5728,0,0,-2.5664,-2.5665,0,0,0,0,0,0,0,0,-2.5806,-2.5805,-2.5782,-2.5778,-2.5772,-2.5744,-2.5774,-2.5768,-2.5698,-2.5725,-2.5691,-2.5687,-2.5689,-2.5688,-2.5688,-2.5726,-2.5725,-2.5665,-2.5665,-2.5666,-2.5666,0,0,0,0,0,0,0,-2.5807,-2.5806,-2.5811,-2.5782,-2.5776,-2.5754,-2.5749,-2.5773,-2.5724,-2.5722,-2.5716,-2.5712,-2.5686,-2.5687,-2.5686,-2.5725,-2.5665,-2.5666,-2.5667,-2.5667,-2.5817,-2.582,0,0,0,0,0,0,-2.5814,-2.5808,-2.5812,-2.581,-2.5782,-2.5757,-2.5751,-2.5756,-2.5724,-2.5716,-2.5715,-2.5708,-2.5686,-2.5685,-2.5685,-2.5761,-2.5666,-2.5667,-2.5668,-2.5814,-2.5818,-2.5821,0,0,0,0,0,0,-2.5815,-2.5816,-2.5813,-2.5807,-2.5805,-2.576,-2.5767,-2.5757,-2.5758,-2.5718,-2.5709,-2.5724,-2.5683,-2.5683,-2.5718,-2.5759,-2.5668,-2.5669,-2.5811,-2.5815,-2.582,-2.5916,0,0,0,0,0,0,-2.5815,-2.5816,-2.584,-2.5808,-2.5806,-2.5846,-2.5769,-2.5759,-2.576,-2.5751,-2.5724,-2.5717,-2.5681,-2.5716,-2.5719,-2.5759,-2.567,-2.5807,-2.5813,-2.5818,-2.5909,-2.5923,-2.5936,0,0,0,0,0,-2.5815,-2.587,-2.5842,-2.5843,-2.5835,-2.5848,-2.5847,-2.5803,-2.5764,-2.5788,-2.5763,-2.5718,-2.5755,-2.572,-2.5723,-2.5765,-2.5804,-2.5811,-2.5818,-2.5903,-2.5921,-2.5936,0,0,0,0,0,0,-2.5909,-2.5864,-2.5833,-2.5879,-2.5868,-2.5833,-2.5862,-2.5824,-2.5824,-2.5816,-2.5763,-2.5758,-2.58,-2.5786,-2.5749,-2.5829,-2.5772,-2.578,-2.5836,-2.5852,-2.5865,-2.5867,-2.5672,0,0,0,0,0,-2.5935,-2.5949,-2.591,-2.5954,-2.595,-2.5908,-2.5912,-2.5879,-2.5866,-2.5861,-2.5838,-2.5828,-2.5837,-2.5844,-2.585,-2.5907,-2.59,-2.5937,-2.5951,-2.5962,-2.5969,-2.5998,-2.6014,-2.5844,-2.5844,-2.5844,0,0,-2.5989,-2.5967,-2.5979,-2.5973,-2.596,-2.5976,-2.5904,-2.5924,-2.5936,-2.5864,-2.5895,-2.5879,-2.5864,-2.591,-2.5929,-2.59,-2.6014,-2.5971,-2.598,-2.5981,-2.6007,-2.6023,-2.6037,-2.5849,-2.5848,-2.5848,0,0,-2.6096,-2.608,-2.6115,-2.6104,-2.6086,-2.6057,-2.6066,-2.6037,-2.6023,-2.6053,-2.5999,-2.6014,-2.603,-2.6022,-2.602,-2.6125,-2.6083,-2.6129,-2.6198,-2.6227,-2.624,-2.6252,-2.6288,-2.6302,-2.6136,-2.6137,-2.6137,0,-2.6165,-2.6186,-2.6138,-2.6161,-2.6161,-2.6096,-2.6132,-2.6124,-2.611,-2.6111,-2.6078,-2.6098,-2.6084,-2.6127,-2.6152,-2.6153,-2.6162,-2.613,-2.6242,-2.6253,-2.6263,-2.6298,-2.6312,-2.6142,-2.6141,-2.6141,-2.614,0,-2.6272,-2.6288,-2.6319,-2.6305,-2.6308,-2.6337,-2.6295,-2.6304,-2.6272,-2.6248,-2.628,-2.6261,-2.6262,-2.627,-2.6239,-2.6309,-2.6291,-2.6252,-2.6193,-2.6286,-2.6317,-2.633,-2.615,-2.6148,-2.6146,-2.6145,0,0,-2.6435,-2.6395,-2.6407,-2.64,-2.6376,-2.6388,-2.6415,-2.6415,-2.6424,-2.6417,-2.6438,-2.6455,-2.6418,-2.6416,-2.6384,-2.641,-2.6493,-2.6366,-2.6365,-2.6389,-2.6568,-2.6597,-2.6613,-2.6467,-2.6469,-2.6471,-2.6569,0,-2.6534,-2.6576,-2.6535,-2.6586,-2.66,-2.654,-2.6564,-2.6553,-2.6532,-2.6541,-2.6518,-2.653,-2.6481,-2.6479,-2.6502,-2.6478,-2.6528,-2.6471,-2.6486,-2.6487,-2.6489,-2.6629,-2.6659,-2.6753,-2.6581,-2.6583,-2.6585,0,-2.6654,-2.6652,-2.6704,-2.6677,-2.6681,-2.6703,-2.67,-2.671,-2.6697,-2.6679,-2.6678,-2.6639,-2.6665,-2.661,-2.6645,-2.6607,-2.6611,-2.6601,-2.6604,-2.6602,-2.654,-2.663,-2.6782,-2.6795,-2.6604,-2.6602,-2.6601,0,-2.6766,-2.6776,-2.6808,-2.6805,-2.6774,-2.6791,-2.6779,-2.6763,-2.6766,-2.6764,-2.6765,-2.6768,-2.6768,-2.6772,-2.6735,-2.6698,-2.6775,-2.6716,-2.6761,-2.6762,-2.6778,-2.6777,-2.6931,-2.6784,-2.6784,-2.6784,-2.6784,0,-2.688,-2.6914,-2.6858,-2.6878,-2.6915,-2.6868,-2.6907,-2.6889,-2.6875,-2.6891,-2.6841,-2.6857,-2.6808,-2.682,-2.6792,-2.6826,-2.6827,-2.6814,-2.6805,-2.6817,-2.6819,-2.6818,-2.681,-2.6788,-2.6787,-2.6786,-2.6785,0,-2.701,-2.6974,-2.7005,-2.6974,-2.6967,-2.6996,-2.6969,-2.6987,-2.6963,-2.6984,-2.6986,-2.6949,-2.696,-2.6924,-2.693,-2.6911,-2.696,-2.6942,-2.6964,-2.6957,-2.7004,-2.6999,-2.7161,-2.7179,-2.7023,-2.7024,-2.7026,0,-2.7084,-2.7109,-2.708,-2.7087,-2.7077,-2.7089,-2.7091,-2.7047,-2.7052,-2.7039,-2.7059,-2.7066,-2.7069,-2.709,-2.7064,-2.7069,-2.7049,-2.7106,-2.705,-2.706,-2.7048,-2.7047,-2.7049,-2.7117,-2.7119,-2.712,-2.7122,0,-2.7219,-2.72,-2.7205,-2.7204,-2.7208,-2.7206,-2.72,-2.7209,-2.7161,-2.717,-2.718,-2.7182,-2.7188,-2.7196,-2.7195,-2.7184,-2.7145,-2.714,-2.715,-2.7161,-2.7172,-2.7165,-2.6993,-2.7136,-2.7134,-2.7133,-2.7133,-2.7132,-2.7322,-2.7341,-2.7324,-2.7331,-2.7322,-2.7318,-2.7332,-2.731,-2.7318,-2.7318,-2.7292,-2.7308,-2.7295,-2.7289,-2.7283,-2.7295,-2.7269,-2.7284,-2.7288,-2.7292,-2.7299,-2.7172,-2.7295,-2.7295,-2.7294,-2.7294,-2.7293,0,-2.7453,-2.7439,-2.7446,-2.7439,-2.7445,-2.7408,-2.74,-2.7408,-2.7422,-2.7412,-2.7416,-2.7429,-2.7436,-2.7411,-2.7415,-2.743,-2.7412,-2.7432,-2.743,-2.7428,-2.7323,-2.7312,-2.7447,-2.7447,-2.7447,-2.7447,-2.7446,-2.7446,-2.7521,-2.7551,-2.7531,-2.7556,-2.7542,-2.7556,-2.7555,-2.7551,-2.7543,-2.7558,-2.7564,-2.7548,-2.7532,-2.7535,-2.754,-2.7533,-2.7536,-2.7562,-2.7549,-2.745,-2.7435,-2.7421,-2.7411,-2.7564,-2.7564,-2.7653,-2.7653,-2.7654]},{"header":{"parameterUnit":"m.s-1","parameterCategory":1,"la1":30.2991,"la2":30.254,"lo1":-89.0895,"lo2":-89.0444,"dy":0.0017,"dx":0.0017,"nx":28,"ny":28,"refTime":"2025-03-13T09:00:00:Z","depth":0,"parameterNumber":3,"parameterNumberName":"V-component_of_WINDS"},"data":[0,0,0,0,0,0,0,0,0,0,0,0,0,0,0,0,0,0,0,0,0,0,0,0,0,0,0,0,0,0,0,0,0,0,0,0,0,0,0,0,0,0,0,0,0,0,0,0,0,0,0,0,0,0,0,0,0,0,2.0195,2.0197,0,2.0341,2.0342,2.0344,2.0414,2.0414,2.0414,2.0414,2.0561,2.0565,2.0569,0,0,0,0,0,0,0,0,0,0,0,0,0,1.998,1.9983,2.0195,2.0197,2.0199,2.034,2.0342,2.0344,2.0414,2.0414,2.0414,2.0414,2.056,2.0564,2.0569,0,0,0,0,0,0,0,0,0,0,0,0,0,2.0094,1.9984,2.0195,2.0251,2.0257,2.034,2.0343,2.0345,2.0414,2.0414,2.0414,2.0414,2.0558,2.0564,2.057,2.0607,0,0,2.0588,2.059,0,0,0,0,0,0,0,0,2.0087,2.0102,2.0241,2.0247,2.0255,2.0359,2.032,2.0433,2.0414,2.0355,2.0414,2.0414,2.0494,2.0505,2.0532,2.0614,2.062,2.0588,2.0592,2.0595,2.0596,0,0,0,0,0,0,0,2.0079,2.0096,2.0253,2.0243,2.0251,2.0269,2.0285,2.0342,2.0423,2.036,2.0365,2.0382,2.0498,2.0526,2.0536,2.0623,2.0588,2.0593,2.0597,2.0599,2.0748,2.0748,0,0,0,0,0,0,2.0062,2.0089,2.0248,2.0257,2.0169,2.0273,2.0291,2.0326,2.0422,2.0437,2.0381,2.0384,2.0516,2.0529,2.0542,2.0596,2.0594,2.06,2.0603,2.0747,2.0748,2.0748,0,0,0,0,0,0,2.0057,2.0076,2.0242,2.0175,2.0197,2.0277,2.0315,2.0329,2.0358,2.0439,2.0453,2.0396,2.0517,2.0533,2.0592,2.0602,2.0603,2.0608,2.0747,2.0748,2.0748,2.0701,0,0,0,0,0,0,2.0051,2.0074,2.0088,2.0174,2.02,2.0289,2.0316,2.0331,2.0368,2.0373,2.0456,2.047,2.0518,2.0583,2.0598,2.061,2.0613,2.0746,2.0747,2.0748,2.0702,2.07,2.0698,0,0,0,0,0,2.0043,2.0067,2.0088,2.0107,2.022,2.029,2.0305,2.036,2.0368,2.0384,2.0437,2.0467,2.0598,2.0588,2.0606,2.0619,2.0746,2.0747,2.0748,2.0703,2.07,2.0698,0,0,0,0,0,0,1.9978,2.0079,2.0104,2.0157,2.0214,2.0301,2.0323,2.0355,2.041,2.0412,2.0478,2.0497,2.055,2.059,2.0577,2.0663,2.0675,2.0679,2.0635,2.0633,2.0631,2.0621,2.0618,0,0,0,0,0,1.997,2.0018,2.0104,2.0143,2.0171,2.0242,2.0274,2.0312,2.0374,2.0398,2.0455,2.0514,2.0569,2.0603,2.0657,2.0708,2.0729,2.0727,2.0725,2.0723,2.0726,2.0761,2.0762,2.0751,2.0751,2.0751,0,0,1.9954,2.0016,2.0041,2.0132,2.0181,2.023,2.0261,2.0311,2.0349,2.0405,2.0465,2.0509,2.0579,2.0635,2.0663,2.0671,2.0734,2.0724,2.0722,2.0727,2.0762,2.0762,2.0763,2.0752,2.0752,2.0752,0,0,1.995,2.0,2.004,2.009,2.0164,2.0212,2.0222,2.0305,2.0337,2.0399,2.0443,2.0489,2.0581,2.0631,2.0667,2.0687,2.0719,2.0703,2.0693,2.0726,2.0726,2.0728,2.0738,2.074,2.0706,2.0706,2.0706,0,1.9921,1.9997,2.0056,2.0105,2.0145,2.0201,2.0243,2.0288,2.0376,2.0402,2.041,2.053,2.058,2.0651,2.0656,2.0683,2.0698,2.0694,2.0722,2.0723,2.0725,2.0736,2.0739,2.0704,2.0704,2.0704,2.0704,0,1.9958,2.0011,2.0034,2.012,2.0163,2.0207,2.0275,2.0311,2.0346,2.0394,2.0458,2.0521,2.0591,2.0611,2.0644,2.0687,2.069,2.0709,2.0722,2.0723,2.0734,2.0738,2.0701,2.0701,2.0702,2.0703,0,0,1.9916,2.0038,2.0045,2.0087,2.0176,2.0218,2.0266,2.0337,2.0368,2.0427,2.0472,2.055,2.057,2.0612,2.0652,2.068,2.0697,2.0696,2.0699,2.0696,2.0752,2.0739,2.0742,2.0718,2.0719,2.0719,2.0747,0,1.9926,2.0017,2.0074,2.0142,2.0194,2.0249,2.0292,2.0352,2.0398,2.0449,2.05,2.0556,2.0576,2.0602,2.0633,2.0688,2.0709,2.0686,2.0761,2.0763,2.0744,2.0748,2.0733,2.0756,2.0751,2.0752,2.0753,0,1.995,2.0011,2.0085,2.0172,2.0196,2.0233,2.0305,2.0352,2.0422,2.0454,2.0503,2.0545,2.0601,2.0609,2.0688,2.0672,2.0706,2.0738,2.0741,2.0751,2.0759,2.076,2.0764,2.0768,2.0759,2.0759,2.0758,0,1.9915,2.0016,2.0074,2.0108,2.021,2.0236,2.028,2.035,2.039,2.0452,2.048,2.0547,2.0584,2.0636,2.0696,2.0696,2.077,2.0782,2.08,2.0799,2.0814,2.0812,2.0825,2.0832,2.0832,2.0832,2.0832,0,1.9922,1.9965,2.0061,2.0097,2.0149,2.0215,2.0264,2.0313,2.0375,2.0423,2.0474,2.0518,2.0593,2.0646,2.0693,2.0754,2.0769,2.0798,2.081,2.0795,2.0792,2.0819,2.082,2.0833,2.0833,2.0832,2.0832,0,1.9891,1.9957,2.0025,2.0118,2.0142,2.0176,2.0256,2.0294,2.0345,2.0405,2.0423,2.0502,2.0568,2.0633,2.072,2.0752,2.0813,2.0828,2.079,2.0797,2.0812,2.0811,2.0845,2.0854,2.0852,2.0851,2.0851,0,1.9892,1.9928,2.0025,2.0062,2.0105,2.0162,2.0205,2.0272,2.0315,2.04,2.0428,2.0498,2.0558,2.0661,2.0727,2.0795,2.0814,2.0821,2.0824,2.0809,2.0818,2.0816,2.0821,2.082,2.0819,2.0819,2.0819,0,1.9887,1.9919,1.9978,2.0051,2.0101,2.016,2.0221,2.0248,2.0328,2.0373,2.0443,2.0489,2.0581,2.0651,2.0728,2.0774,2.0811,2.0818,2.0826,2.0811,2.0789,2.0804,2.0787,2.0817,2.0817,2.0817,2.0817,2.0817,1.9874,1.991,1.9986,2.0052,2.0106,2.0164,2.0206,2.0263,2.0322,2.0403,2.044,2.051,2.0583,2.0691,2.0737,2.0794,2.0803,2.0814,2.0817,2.0819,2.0817,2.0778,2.0808,2.0808,2.0808,2.0808,2.0808,0,1.9875,1.9928,1.9988,2.0074,2.0126,2.0158,2.0229,2.0271,2.0333,2.0398,2.0457,2.0539,2.0608,2.0681,2.0755,2.0787,2.0806,2.0804,2.0803,2.0814,2.0803,2.079,2.0788,2.0788,2.0788,2.0788,2.0788,2.0788,1.9881,1.9945,1.9987,2.0079,2.0132,2.0203,2.0241,2.0295,2.0349,2.0438,2.0497,2.0544,2.0614,2.0694,2.076,2.078,2.0806,2.08,2.0824,2.0813,2.0814,2.0815,2.0804,2.0804,2.0804,2.0831,2.0831,2.0831]}]]